Weather History for KBML - February, 2012

Change the Weather History Date:

Monday, February 6, 2012

  Actual Average Record
Temperature  
Mean Temperature 32 °F -  
Max Temperature 44 °F - - ()
Min Temperature 19 °F - - ()
Degree Days  
Heating Degree Days 34    
Moisture  
Dew Point 21 °F    
Average Humidity 61    
Maximum Humidity 78    
Minimum Humidity 42    
Precipitation  
Precipitation 0.00 in - - ()
Sea Level Pressure  
Sea Level Pressure 29.82 in    
Wind  
Wind Speed 4 mph (WSW)    
Max Wind Speed 12 mph    
Max Gust Speed 20 mph    
Visibility 10 miles    
Events      
T = Trace of Precipitation, MM = Missing Value Source: NWS Daily Summary

Daily Weather History Graph

Daily Weather History Graph

Search for Another Location

Airport or City:

Trip Planner

Search our weather history database for the weather conditions in past years. The results will help you decide how hot, cold, wet, or windy it might be!

Date:

Astronomy

Feb. 06, 2012 Rise Set
Actual Time 6:58 AM EST 5:00 PM EST
Civil Twilight 6:27 AM EST 5:30 PM EST
Nautical Twilight 5:52 AM EST 6:05 PM EST
Astronomical Twilight 5:18 AM EST 6:39 PM EST
Moon 3:59 PM EST (2/6) 5:49 AM EST (2/6)
Length of Visible Light 11h 03m
Length of Day
10h 01m
Waxing Gibbous, 98% of the Moon is Illuminated
Feb 6
Waxing Gibbous
Feb 7
Full
Feb 14
Last Quarter
Feb 21
New
Feb 29
First Quarter

Hourly Weather History & Observations

Time (EST) Temp. Windchill Dew Point Humidity Pressure Visibility Wind Dir Wind Speed Gust Speed Precip Events Conditions
12:52 AM 27.0 °F 23.0 °F 16.0 °F 63% 29.95 in 10.0 mi Variable 3.5 mph - N/A   Overcast
1:52 AM 27.0 °F - 16.0 °F 63% 29.94 in 10.0 mi Calm Calm - N/A   Overcast
2:52 AM 26.1 °F - 15.1 °F 63% 29.89 in 10.0 mi Calm Calm - N/A   Partly Cloudy
3:52 AM 19.9 °F - 14.0 °F 78% 29.89 in 10.0 mi Calm Calm - N/A   Scattered Clouds
4:52 AM 23.0 °F - 16.0 °F 74% 29.88 in 10.0 mi Calm Calm - N/A   Overcast
5:52 AM 26.1 °F 21.9 °F 17.1 °F 69% 29.86 in 10.0 mi SE 3.5 mph - N/A   Overcast
6:41 AM 28.4 °F 24.6 °F 17.6 °F 64% 29.80 in 10.0 mi SE 3.5 mph - N/A   Overcast
6:52 AM 27.0 °F 23.0 °F 18.0 °F 69% 29.87 in 10.0 mi ESE 3.5 mph - N/A   Overcast
7:52 AM 28.0 °F 24.2 °F 19.0 °F 69% 29.86 in 10.0 mi SW 3.5 mph - N/A   Overcast
8:52 AM 30.9 °F - 21.0 °F 67% 29.85 in 10.0 mi Calm Calm - N/A   Overcast
9:52 AM 32.0 °F 26.4 °F 21.0 °F 64% 29.85 in 10.0 mi West 5.8 mph - N/A   Overcast
10:52 AM 33.1 °F 26.9 °F 21.9 °F 64% 29.84 in 10.0 mi Variable 6.9 mph - N/A   Overcast
11:38 AM 37.4 °F 32.1 °F 23.0 °F 56% 29.75 in 10.0 mi Variable 6.9 mph - N/A   Scattered Clouds
11:52 AM 37.9 °F 30.5 °F 23.0 °F 55% 29.79 in 10.0 mi West 11.5 mph 19.6 mph N/A   Clear
12:52 PM 37.0 °F 31.0 °F 24.1 °F 59% 29.78 in 10.0 mi West 8.1 mph - N/A   Clear
1:52 PM 41.0 °F 35.8 °F 24.1 °F 51% 29.74 in 10.0 mi West 8.1 mph 18.4 mph N/A   Clear
2:52 PM 43.0 °F 38.2 °F 23.0 °F 45% 29.73 in 10.0 mi West 8.1 mph - N/A   Clear
3:52 PM 44.1 °F 40.1 °F 21.9 °F 42% 29.74 in 10.0 mi Variable 6.9 mph - N/A   Clear
4:52 PM 41.0 °F 38.0 °F 21.0 °F 45% 29.74 in 10.0 mi Variable 4.6 mph - N/A   Clear
5:52 PM 39.0 °F 36.8 °F 21.0 °F 49% 29.77 in 10.0 mi Variable 3.5 mph - N/A   Clear
6:52 PM 37.0 °F 33.3 °F 25.0 °F 62% 29.79 in 10.0 mi NW 4.6 mph - N/A   Clear
7:52 PM 35.1 °F 31.0 °F 25.0 °F 67% 29.81 in 10.0 mi WNW 4.6 mph - N/A   Clear
8:52 PM 34.0 °F 31.0 °F 25.0 °F 70% 29.82 in 10.0 mi Variable 3.5 mph - N/A   Scattered Clouds
9:52 PM 36.0 °F 32.1 °F 25.0 °F 64% 29.81 in 10.0 mi WSW 4.6 mph - N/A   Overcast
10:52 PM 37.0 °F 32.4 °F 24.1 °F 59% 29.81 in 10.0 mi West 5.8 mph - N/A   Overcast
11:52 PM 37.0 °F 33.3 °F 25.0 °F 62% 29.82 in 10.0 mi Variable 4.6 mph - N/A   Overcast